Voltar ao catálogo

STARLINK-3919

AtivoComunicaçõesVLEO
NORAD 52580·PAYLOAD·🇺🇸 United States

Lançado May 13, 2022 de Vandenberg Space Force Base

Loading…

Próximas Passagens (próximas 24 horas)

TLE

AtualizadoSource: CelesTrak SupGP

Época: Sep 15, 2026, 01:53 UTC

1 52580C 22051AW  26258.07895833  .00024779  00000+0  79694-3 0  2580
2 52580  53.1597 359.0685 0000970  91.9393 130.1855 15.31685276    16

Acompanhe STARLINK-3919 em tempo real com AllMySat

Download on the App Store